{"data":{"norad_id":69287,"intl_designator":"2026-118W","name":"KUIPER-00603","alt_names":[],"object_type":"PAYLOAD","status":"ACTIVE","operator":null,"country":"US","launch_date":"2026-05-29","launch_site_code":"AFETR","launch_vehicle":null,"mission":null,"orbit_class":"UNKNOWN","rcs_meters":null,"size_class":null,"mass_kg":null,"dimensions":null,"purposes":[],"wikipedia_slug":null,"has_3d_model":false,"image_url":null,"decayed_at":null,"tle_current":{"epoch":"2026-09-19T12:24:29.374560Z","epoch_age_seconds":115040,"freshness":"FRESH","line1":"1 69287U 26118W   26262.51700665  .00001966  00000+0  28677-3 0  9992","line2":"2 69287  51.9060 338.5469 0000335  87.6546 272.4455 14.79935416 18197","mean_motion":14.79935416,"eccentricity":3.35e-5,"inclination_deg":51.906,"raan_deg":338.5469,"arg_perigee_deg":87.6546,"mean_anomaly_deg":272.4455,"bstar":0.00028677,"rev_number":1819,"period_min":97.301543326266,"perigee_km":629.29324569447,"apogee_km":629.76275924964,"semimajor_km":7007.6650024721,"source":"CELESTRAK","updated_at":"2026-09-20T09:00:24.781973Z"}}}